Terminal Aerodrome Forecast
Issued by NWS Goodland, KS

Home | Current Version | Previous Version | Text Only | Print | Product List | Glossary On
Versions: 1 2 3 4 5 6 7 8 9 10 11 12 13 14 15 16 17 18 19 20 21
000
FTUS43 KGLD 161356 AAB
TAFGLD
TAF AMD
KGLD 161356Z 1614/1712 19015G23KT P6SM OVC015
     FM161600 20013G21KT P6SM SCT025
     FM161800 21010G18KT P6SM SKC
     FM162200 18008KT P6SM SKC
     FM170700 24005KT P6SM SKC=

USA.gov is the U.S. government's official web portal to all federal, state and local government web resources and services.